Regional Weather Roundup
Issued by NWS

Home | Current Version | Previous Version | Text Only | Print | Product List | Glossary Off
Versions: 1 2 3 4 5 6 7 8 9 10 11 12 13 14 15 16 17 18 19 20 21 22 23 24 25 26 27 28 29 30 31 32 33 34 35 36 37 38 39 40 41 42 43 44 45 46 47 48 49 50

000
ASUS43 KIND 041009
RWRIN

WEATHER ROUNDUP FOR INDIANA
NATIONAL WEATHER SERVICE INDIANAPOLIS IN
600 AM EDT TUE AUG 04 2015

NOTE: "FAIR" INDICATES FEW OR NO CLOUDS BELOW 12,000 FEET WITH NO
SIGNIFICANT WEATHER AND/OR OBSTRUCTIONS TO VISIBILITY.

* - STATION DOES NOT REPORT WEATHER SUCH AS PRECIPITATION OR FOG.

+ - STATION NOT QUALITY CONTROLLED BY THE NATIONAL WEATHER SERVICE.
    USE DATA WITH CAUTION...ESPECIALLY DEWPOINT AND RELATIVE
    HUMIDITY OBSERVATIONS.

INZ001>003-010>013-019-020-041100-
NORTHWEST INDIANA

CITY           SKY/WX    TMP DP  RH WIND       PRES   REMARKS
GARY /AIRPORT/ CLEAR     57  57 100 W5        29.93S
KNOX *+        CLEAR     57  55  94 CALM      29.92S
LA PORTE +     CLEAR     57  57 100 CALM      29.94R
MICHIGAN CITY+ CLEAR     57  57 100 CALM      29.93S
MONTICELLO +   CLEAR     58  57  96 CALM      29.94R
RENSSELAER +   CLEAR     57  57 100 SW3       29.94R
VALPARAISO     CLEAR     61  55  81 W6        29.93S

$$

LMZ046-743>745-041100-
SOUTHERN LAKE MICHIGAN

STATION/POSITION TIME  TEMP    WIND        PRES    WAVE
                       AIR SEA DIR/SP/G            HT
                 (UTC) (F)     (DEG/KT/KT) (MB)    (FT)
BURNS HARBOR     0900   66     200/  6/  7 1013.9R
MICHIGAN CITY    0900   65     180/  5/  6   N/A
5NW MICH CITY    1000   72 73  300/  6/  8   N/A     2

$$

INZ004-005-014>016-021>024-041100-
NORTH CENTRAL INDIANA

CITY           SKY/WX    TMP DP  RH WIND       PRES   REMARKS
GOSHEN         PTCLDY    59  54  83 SW3       29.93R
LOGANSPORT +   CLEAR     55  52  88 CALM      29.95R
PERU/GRISSOM   CLEAR     59  57  94 SW3       29.94S
ROCHESTER +    CLEAR     61  57  88 SW3       29.94R
SOUTH BEND     CLEAR     59  55  87 SW3       29.93S
WARSAW +       CLEAR     59  54  82 CALM      29.93S

$$

INZ006>009-017-018-025>027-041100-
NORTHEAST INDIANA

CITY           SKY/WX    TMP DP  RH WIND       PRES   REMARKS
ANGOLA *+      CLEAR     55  54  94 CALM      29.93R
AUBURN +       CLEAR     59  54  82 SW5       29.94R
FORT WAYNE     CLEAR     59  56  89 SW6       29.94S
HUNTINGTON +   CLEAR     61  57  88 CALM      29.94S

$$

INZ028-029-035-036-043>045-051>053-041100-
WEST CENTRAL INDIANA

CITY           SKY/WX    TMP DP  RH WIND       PRES   REMARKS
CRAWFORDSVL +  CLEAR     55  55 100 CALM        N/A
GREENCASTLE +  CLEAR     59  55  88 CALM      29.96S
LAFAYETTE      CLEAR     55  54  96 CALM      29.94R
TERRE HAUTE    CLOUDY    63  61  93 CALM      29.96R

$$

INZ030>032-037>040-046>048-054>057-064-065-041100-
CENTRAL INDIANA

CITY           SKY/WX    TMP DP  RH WIND       PRES   REMARKS
FISHERS *+     CLEAR     57  57 100 CALM      29.95S
FRANKFORT +    CLEAR    N/A N/A N/A CALM      29.96S
GREENWOOD *+   CLEAR     59  55  88 CALM      29.96S
INDIANAPOLIS   CLEAR     65  57  75 CALM      29.94S
-EAGLE CREEK   CLEAR     62  60  93 CALM      29.94S
KOKOMO *+      CLEAR     57  54  88 CALM      29.95S
MARION +       CLEAR     55  55  99 CALM      29.96R FOG
MT COMFORT *+  CLEAR     57 N/A N/A CALM      29.96S
SHELBYVILLE    CLEAR     61  58  90 CALM      29.95R
ZIONSVILLE +   CLEAR     56  54  91 CALM      29.96S

$$

INZ033-034-041-042-049-050-058-059-041100-
EAST CENTRAL INDIANA

CITY           SKY/WX    TMP DP  RH WIND       PRES   REMARKS
MUNCIE         CLEAR     57  56  96 CALM      29.95S

$$

INZ060-061-067>069-081>083-085>088-041100-
SOUTHWEST INDIANA

CITY           SKY/WX    TMP DP  RH WIND       PRES   REMARKS
EVANSVILLE     PTCLDY    73  68  84 CALM      29.95S
HUNTINGBURG *+ CLOUDY    70  66  88 CALM      29.96R
WASHINGTON +   PTCLDY    67  64  87 CALM      29.95R

$$

INZ062-063-066-070>080-084-089>092-041100-
SOUTH CENTRAL AND SOUTHEAST INDIANA

CITY           SKY/WX    TMP DP  RH WIND       PRES   REMARKS
BLOOMINGTON    PTCLDY    63  61  93 CALM      29.96R
MADISON *+       N/A     64  64 100 CALM      29.97S VSB 3/4
NORTH VERNON +   N/A     64  64 100 CALM      29.96R FOG
SEYMOUR +      FOG       64  64 100 CALM      29.95R VSB 1/4

$$



USA.gov is the U.S. government's official web portal to all federal, state and local government web resources and services.